Regional Weather Roundup
Issued by NWS

Home | Current Version | Previous Version | Text Only | Print | Product List | Glossary Off
Versions: 1 2 3 4 5 6 7 8 9 10 11 12 13 14 15 16 17 18 19 20 21 22 23 24 25 26 27 28 29 30 31 32 33 34 35 36 37 38 39 40 41 42 43 44 45 46 47 48 49 50

000
ASUS43 KDTX 070510
RWRMI
MICHIGAN HOURLY REGIONAL WEATHER ROUNDUP
NATIONAL WEATHER SERVICE DETROIT/PONTIAC MI
100 AM EDT TUE JUL 07 2015

NOTE: "FAIR" INDICATES FEW OR NO CLOUDS BELOW 12,000 FEET WITH NO
SIGNIFICANT WEATHER AND/OR OBSTRUCTION TO VISIBILITY.

MIZ047>049-052>055-059>063-066>070-074>076-081>083-070600-
SOUTHEAST LOWER MICHIGAN

CITY           SKY/WX    TMP DP  RH WIND       PRES   REMARKS
ADRIAN         CLOUDY    73  66  78 SW8       29.92F
ALMA           CLOUDY    74  67  77 S6        29.85F
ANN ARBOR      CLOUDY    72  65  78 S7        29.91F
BAD AXE        CLOUDY    72  60  65 S12       29.87F
CARO           CLOUDY    74  63  69 S8        29.86F
DETROIT CITY   CLOUDY    74  64  71 S8        29.91F
DETROIT        CLOUDY    75  64  68 S10       29.92F
FLINT          CLOUDY    76  64  66 S9        29.88F
GROSSE ILE     CLOUDY    73  68  83 S9        29.91F
HILLSDALE      CLOUDY    74  69  82 S6        29.93S
HOWELL         CLOUDY    74  65  73 S7        29.90F

CITY           SKY/WX    TMP DP  RH WIND       PRES   REMARKS
JACKSON        CLOUDY    76  65  68 S9        29.90F
LAMBERTVILLE   CLOUDY    76  65  67 S5        29.93F
LANSING        CLOUDY    76  65  68 S9        29.88F
LAPEER         FAIR      73  62  67 S7        29.89F
MASON          CLOUDY    73  64  75 CALM      29.89S
MONROE         CLOUDY    74  65  73 S7        29.92S
MT. CLEMENS    CLOUDY    71  67  88 S8        29.89F
PONTIAC        CLOUDY    74  64  71 S7        29.90F
PORT HOPE        N/A     74  60  61 S8        29.84F
PORT HURON     MOCLDY    68  63  83 S6        29.91F
TRI CITIES     CLOUDY    76  65  68 S9        29.85F
MIDLAND        FAIR      76  65  67 S6        29.82F
TROY           CLOUDY    76  64  64 S7        29.93S
SAGINAW HB     CLOUDY    75  63  64 S10       29.84F
$$
MIZ043>046-050>051-056>058-064>065-071>073-077>080-070600-
SOUTHWEST LOWER MICHIGAN

CITY           SKY/WX    TMP DP  RH WIND       PRES   REMARKS
BATTLE CREEK   CLOUDY    77  66  68 S13       29.89S
BENTON HARBOR  CLOUDY    78  70  76 SW15      29.86R
BIG RAPIDS     HVY RAIN  71  68  91 SW10G22   29.85S
COLDWATER      CLOUDY    75  65  70 SW8       29.90F
FREMONT        RAIN      70  69  98 S9G16     29.85S
HOLLAND        CLOUDY    77  68  73 SW18G26   29.86R
GRAND RAPIDS   CLOUDY    78  68  71 S13       29.85S
IONIA          FAIR      77  66  68 SW9       29.85S
KALAMAZOO      CLOUDY    77  68  73 S9        29.88S
LUDINGTON      CLOUDY    71  68  90 SW9G16    29.82S
MARSHALL       CLOUDY    77  67  69 S10G16    29.89S
MOUNT PLEASANT DRIZZLE   75  66  73 SW6       29.83S
MUSKEGON       CLOUDY    71  68  90 SW6       29.86R
SOUTH HAVEN    CLOUDY    78  69  73 W9        29.86R
$$
MIZ016>042-070600-
NORTHERN LOWER MICHIGAN

CITY           SKY/WX    TMP DP  RH WIND       PRES   REMARKS
ALPENA         CLOUDY    76  65  68 S9        29.78F
BEAVER ISLAND  DRIZZLE   58  57  96 NW9       29.83R
BELLAIRE       CLOUDY    71  68  90 CALM      29.77F
CADILLAC       CLOUDY    71  69  95 S13       29.83F
CHARLEVOIX     LGT RAIN  62  62  98 W10       29.82S
FRANKFORT      CLOUDY    61  55  80 N10       29.83R HAZE
GAYLORD        HVY RAIN  70  70 100 SW15G28   29.81S FOG
GRAYLING       RAIN      70  68  95 S5        29.82F
HARBOR SPRINGS DRIZZLE   62  62  99 SW6       29.78F
HOUGHTON LAKE  LGT RAIN  71  68  90 S9        29.83S FOG
MANISTEE       CLOUDY   N/A N/A N/A W17G24    29.81R
OSCODA         CLOUDY    75  65  70 S12G17    29.81F
PELLSTON       LGT RAIN  66  64  93 SW5       29.77F
ROGERS CITY    CLOUDY    77  66  70 SW5       29.77S
TRAVERSE CITY  CLOUDY    73  67  81 VRB5      29.77S
$$
MIZ007>008-015-070600-
EASTERN UPPER MICHIGAN

CITY           SKY/WX    TMP DP  RH WIND       PRES   REMARKS
KINROSS        CLOUDY    57  57 100 NW15G23   29.77R
MACKINAC ISLAN RAIN      63  63 100 W3        29.76F
NEWBERRY       LGT RAIN  55  55  99 NW12G22   29.82S
S. S. MARIE    LGT RAIN  56  54  93 NW14      29.77R
MUNISING         N/A     51  47  86 NW14      29.89R
$$
MIZ004>006-011>014-085-070600-
CENTRAL UPPER MICHIGAN

CITY           SKY/WX    TMP DP  RH WIND       PRES   REMARKS
MANISTIQUE     LGT RAIN  55  54  95 NW12G20   29.84R
ESCANABA       CLOUDY    57  54  88 N9G17     29.88R
MENOMINEE      MOCLDY    57  54  88 NW8       29.88S
SAWYER-GWINN   CLOUDY    54  50  85 N12       29.92R
$$
MIZ001>003-009>011-084-070600-
WESTERN UPPER MICHIGAN

CITY           SKY/WX    TMP DP  RH WIND       PRES   REMARKS
IRON MOUNTAIN  CLOUDY    59  55  87 N13       29.90S FOG
HOUGHTON       CLOUDY    53  50  89 NW7       29.95R
COPPER HARBOR    N/A     50  45  83 N16       29.92F
IRONWOOD       CLOUDY    54  50  87 N6        29.98R
$$

ABBREVIATIONS USED IN REMARKS
   TC - TEMPERATURE IN CELSIUS
  WCI - WIND CHILL INDEX
   HX - HEAT INDEX
  VSB - VISIBILITY



USA.gov is the U.S. government's official web portal to all federal, state and local government web resources and services.